FREGAT R/B, 43088

Orbit data source: Space-Track

FREGAT R/B, 43088 is space debris in GEO originally from a launch on Tue, 26 Dec 2017 UTC launched from the Tyuratam Missile And Space Complex (TTMTR). Debris objects in space refer to the collection of defunct objects orbiting the Earth. Examples of debris include non-operational satellites, rocket bodies, and fragments generated from explosions, collisions, or faulty payload assembly.

Not visible in the next 10 days
Identifier
43088, 2017-086B
Orbit
GEO
Country
Flag of CISCIS
Related business
Manufacturer
Lavochkin
Mission
Spacecraft
Bus & Motor
FREGAT, Unknown motor
Mass
1,000 kg wet, 1,000 kg dry
Launch date (UTC)
2017-12-26 (8 years ago)
Launch vehicle
Unknown
Launch site
Tyuratam Missile And Space Complex (TTMTR)
Object type
Payload
Rocket body
Debris
Shape & HBR
Cyl, 1.6 m
Radar Cross Section
8.683 m²

Expand to show TLE details & history
Last TLE update: 10 hours ago

TLE from 10 hours ago
0 FREGAT R/B
1 43088U 17086B   25307.89106041  .00000062  00000-0  00000+0 0  9998
2 43088   6.9715  68.7775 0127462  22.7049 337.8048  0.98387668 28221
Epoch: 2025-11-03T21:23Z
TLE epoch observation values (Epoch: 2025-11-03T21:23:07.619Z)
Latitude
Longitude
64.52825°
Altitude
35,819.688 km
Speed
3.092 km/s
True Right ascension
04h 34m 47s
True Declination
0° 00' 00"
Sunlit
Object was in daylight at epoch
Visualization orbit readout
Latitude
Unknown
Longitude
Unknown
Altitude
Unknown
Speed
Unknown
Apparent Right ascension
Unknown
Apparent Declination
Unknown
Sunlit
N/A
Visualization observer readout
Local Sidereal Time
03:18:39
Azimuth
Unknown
Elevation
Unknown
Doppler factor
Unknown
Orbital elements
Apogee altitude
36,868.52 km
Perigee altitude
35,779.935 km
Semi-major axis
42,702.365 km
Eccentricity
0.01275
Inclination
6.9715°
RAAN
68.7775°
Arg. of periapsis
22.7049°
True anomaly
337.24479°
Mean anomaly
337.8048°
Eccentric anomaly
337.52563°
Mean motion
0.24596 °/min
Orbital period
1,463.65 mins
BSTAR
0
Loading maneuver chart data...
Computing Atmospheric mass density...
Loading historical data...
Loading historical data...
Loading historical data...
Loading historical data...
Loading historical data...
Loading historical data...
Loading historical data...

Documentation

Showing up to 5 results
|